Airfield :
LOGIN :

Register | Disclaimer

   EN    FR    IT 

 










Legend :    VFR   Marginal VFR   IFR   Intensive IFR   Very Intensive IFR
Visi :
Ceiling :
>= 8 km
>= 3000ft
5 to 8 km
1000 to 3000 ft
1500m to 5 km
500 to 1000 ft
800 to 1500m
200 to 500 ft
< 800m
< 200 ft
Symbols :   Thunderstorms  Fog  Heavy snow  Heavy precipitations  Wind > 20 kt
SIGMETs :     Misc.  Thunderstorms  Icing  Turbulence  Mountain Waves  Volcanic Ashes






- Airport Elevation : 9 ft
- IATA code : MIR


DTMB - Habib Bourguliba Int. Monastir

CURRENT METAR :
  • 100430Z 09002KT 8000 NSC 17/16 Q1015

EXPIRED METARs :
  • 100400Z 00000KT 8000 NSC 17/16 Q1016
  • 100330Z 28002KT 8000 NSC 17/15 Q1016
  • 100300Z 00000KT CAVOK 17/16 Q1015
  • 100230Z 00000KT CAVOK 17/16 Q1015
  • 100200Z 00000KT CAVOK 18/16 Q1016

TAF TAF DTMB
Valid from the 10 at 00:00 until the 11 at 00:00 UTC


092300Z 1000/1024 VRB02KT 9999 FEW026
BECMG 1007/1009 10012KT
BECMG 1020/1022 04005KT



MET'MAP, your aeronautical weather chart ! - Copyright ORBIFLY December 2007 - Disclaimer

ORBIFLY MET'MAP TEAM :

Programming & Development : Alexandra Zaïnal
Concept & original design : Baudouin d'Aumeries
Assistance for programming : Marc-Olivier Méhu
Technical & hardware support : Manuel Goepfert

Contact : metmap@orbifly.com




SOURCES & CREDITS :

   NOAA